Location: ?????
(55.6500°N, 37.2500°E)
Time: 10:21:26
(UTC+00:00)

Cosmos 1048 Rocket - Pass Details

Date: 19 May 2025
Orbit: 739 x 787 km, 74.0° (Epoch: 14 June)

Event Time Altitude Azimuth Distance (km) Brightness Sun altitude
Exits shadow 22:39:57 18° 183° (S) 1,782 5.3 -12.8°
Maximum altitude 22:43:39 55° 110° (ESE) 892 4.3 -12.7°
Drops below altitude 10° 22:48:38 10° 34° (NE) 2,266 7.8 -12.4°
Sets 22:51:02 0° 30° (NNE) 3,198 9.1 -12.3°
